TimeEDT,TemperatureF,Dew PointF,Humidity,Sea Level PressureIn,VisibilityMPH,Wind Direction,Wind SpeedMPH,Gust SpeedMPH,PrecipitationIn,Events,Conditions,WindDirDegrees,DateUTC
12:54 AM,45.0,39.0,80,29.91,10.0,Calm,Calm,-,N/A,,Clear,0,2008-10-02 04:54:00
1:54 AM,48.0,37.9,68,29.88,10.0,NNW,3.5,-,N/A,,Clear,330,2008-10-02 05:54:00
2:54 AM,46.9,37.9,71,29.89,10.0,North,8.1,-,N/A,,Clear,350,2008-10-02 06:54:00
3:54 AM,44.1,37.9,79,29.88,10.0,Calm,Calm,-,N/A,,Clear,0,2008-10-02 07:54:00
4:54 AM,44.1,37.9,79,29.90,10.0,Calm,Calm,-,N/A,,Clear,0,2008-10-02 08:54:00
5:54 AM,43.0,37.9,82,29.91,10.0,Calm,Calm,-,N/A,,Clear,0,2008-10-02 09:54:00
6:54 AM,43.0,37.9,82,29.93,10.0,Calm,Calm,-,N/A,,Clear,0,2008-10-02 10:54:00
7:54 AM,41.0,37.4,87,29.96,10.0,Calm,Calm,-,N/A,,Clear,0,2008-10-02 11:54:00
8:54 AM,48.0,39.0,71,29.94,10.0,North,6.9,-,N/A,,Clear,350,2008-10-02 12:54:00
9:54 AM,52.0,39.9,63,29.96,10.0,Variable,4.6,-,N/A,,Clear,0,2008-10-02 13:54:00
10:54 AM,55.9,41.0,57,29.97,10.0,North,9.2,-,N/A,,Scattered Clouds,360,2008-10-02 14:54:00
11:54 AM,57.9,39.9,51,29.96,10.0,NNW,15.0,-,N/A,,Clear,340,2008-10-02 15:54:00
12:54 PM,60.1,41.0,49,29.95,10.0,North,9.2,19.6,N/A,,Partly Cloudy,350,2008-10-02 16:54:00
1:54 PM,61.0,39.9,46,29.93,10.0,NNW,9.2,-,N/A,,Clear,340,2008-10-02 17:54:00
2:54 PM,62.1,39.9,44,29.91,10.0,North,12.7,17.3,N/A,,Clear,350,2008-10-02 18:54:00
3:54 PM,63.0,39.9,43,29.90,10.0,North,11.5,-,N/A,,Clear,360,2008-10-02 19:54:00
4:54 PM,63.0,41.0,45,29.90,10.0,North,9.2,-,N/A,,Clear,350,2008-10-02 20:54:00
5:54 PM,60.1,41.0,49,29.91,10.0,WNW,5.8,-,N/A,,Mostly Cloudy,300,2008-10-02 21:54:00
6:54 PM,57.0,42.1,57,29.93,10.0,NW,6.9,-,N/A,,Clear,320,2008-10-02 22:54:00
7:54 PM,55.0,42.1,62,29.95,10.0,Calm,Calm,-,N/A,,Overcast,0,2008-10-02 23:54:00
8:54 PM,53.1,43.0,69,29.95,10.0,Calm,Calm,-,N/A,,Mostly Cloudy,0,2008-10-03 00:54:00
9:54 PM,51.1,44.1,77,29.96,10.0,Calm,Calm,-,N/A,,Scattered Clouds,0,2008-10-03 01:54:00
10:54 PM,46.9,43.0,86,29.98,10.0,Calm,Calm,-,N/A,,Clear,0,2008-10-03 02:54:00
11:54 PM,45.0,42.1,90,29.99,10.0,Calm,Calm,-,N/A,,Clear,0,2008-10-03 03:54:00